This is the latest recevied weather packets stored in our database for station/object SQ7IQO. If no packets are shown the sender has not sent any weather packets the latest 10 day(s).
| Time | Temp. | Humidity | Pressure | Rain* | Wind** | Luminosity | Snow |
|---|---|---|---|---|---|---|---|
| 1787496413 | 19.44° C | - | - | 0 mm | 0.89 m/s, ° | - | - |
| 1787496353 | 19.44° C | - | - | 0 mm | 0.89 m/s, ° | - | - |
| 1787496293 | 19.44° C | - | - | 0 mm | 1.34 m/s, ° | - | - |
| 1787496233 | 20° C | - | - | 0 mm | 1.34 m/s, ° | - | - |
| 1787496173 | 19.44° C | - | - | 0 mm | 0.89 m/s, ° | - | - |
| 1787496113 | 19.44° C | - | - | 0 mm | 0.89 m/s, ° | - | - |
| 1787496053 | 18.89° C | - | - | 0 mm | 0 m/s | - | - |
| 1787495993 | 18.89° C | - | - | 0 mm | 0.45 m/s, ° | - | - |
| 1787495933 | 18.89° C | - | - | 0 mm | 0.89 m/s, ° | - | - |
| 1787495873 | 18.33° C | - | - | 0 mm | 1.34 m/s, ° | - | - |
| 1787495813 | 17.78° C | - | - | 0 mm | 0.45 m/s, ° | - | - |
| 1787495753 | 17.22° C | - | - | 0 mm | 0.89 m/s, ° | - | - |
| 1787495693 | 17.22° C | - | - | 0 mm | 0.89 m/s, ° | - | - |
| 1787495633 | 17.78° C | - | - | 0 mm | 1.34 m/s, ° | - | - |
| 1787495573 | 17.22° C | - | - | 0 mm | 0.45 m/s, ° | - | - |
| 1787495513 | 17.78° C | - | - | 0 mm | 0.89 m/s, ° | - | - |
| 1787495453 | 17.78° C | - | - | 0 mm | 0.89 m/s, ° | - | - |
| 1787495393 | 17.22° C | - | - | 0 mm | 1.79 m/s, ° | - | - |
| 1787495333 | 17.22° C | - | - | 0 mm | 1.34 m/s, ° | - | - |
| 1787495273 | 17.22° C | - | - | 0 mm | 0.89 m/s, ° | - | - |
| 1787495213 | 17.22° C | - | - | 0 mm | 1.34 m/s, ° | - | - |
| 1787495153 | 17.22° C | - | - | 0 mm | 1.79 m/s, ° | - | - |
| 1787495093 | 17.78° C | - | - | 0 mm | 0.89 m/s, ° | - | - |
| 1787495033 | 17.22° C | - | - | 0 mm | 0.89 m/s, ° | - | - |
| 1787494973 | 17.22° C | - | - | 0 mm | 0.89 m/s, ° | - | - |
* Rain latest hour (hover to see other rain measurements)
** Current wind speed in m/s (hover to see current wind gust speed)